[Date Prev][Date Next][Thread Prev][Thread Next] - [Date Index][Thread Index][Author Index]

2 line ISS Keps 5-22



ISS
1 25544U 98067A   01142.11503150  .00035557  00000-0  42911-3 0  9900
2 25544  51.5707 220.2243 0017728  73.1344   0.8655 15.60216698143005

----
Via the sarex mailing list at AMSAT.ORG courtesy of AMSAT-NA.
To unsubscribe, send "unsubscribe sarex" to Majordomo@amsat.org



AMSAT Top AMSAT Home